Location: Greenwich
(51.4790°N, 0.0090°E)
Time: 03:51:42
(UTC+01:00)

Transit 2A - Visible Passes

Search period start: 22 April 2024 00:00
Search period end: 02 May 2024 00:00
Orbit: 596 x 956 km, 66.7° (Epoch: 21 April)

Date Brightness Start Highest point End Pass type
(mag) Time Alt. Az. Time Alt. Az. Time Alt. Az.
28 Apr 8.1 04:36:33 10° SSE 04:39:38 18° ESE 04:42:54 10° ENE visible
29 Apr 8.3 04:02:55 10° SE 04:04:48 12° ESE 04:06:45 10° E visible
01 May 6.9 04:32:39 10° S 04:36:49 38° ESE 04:41:20 10° NE visible
